Date String (YYYY-MM-DD hh:mm:ss) UTC,Instrument flags,absolute air pressure of the measurement (hPa),sample flow rate (lpm),inlet stack bypass flow (lpm),air temperature of the measurement (°C),ambient temperature measured by the external sensor (°C),aerosol sample conditioner tube jacket temperature (°C),OPC LED temperature (°C),internal box temperature (°C),relative humidity of the measurement (%),span deviation,mass concentration of particles derived from Lorenz-Mie calculation of OPC scattering (μg/m³),mass concentration of particles derived from Lorenz-Mie calculation of OPC scattering (μg/m³),mass concentration of particles derived from Lorenz-Mie calculation of OPC scattering (μg/m³)
DateTimeUTC,F1_M11,P_M11,Q1_M11,Q2_M11,T1_M11,T2_M11,T3_M11,T4_M11,T5_M11,U1_M11,ZSPAN_M11,X0_M11,X2_M11,X1_M11
2024-02-05 00:00:00,SystemResetWarning,0830.1,4.99,000.00,022.7,022.1,000.0,031.1,024.6,19.0,0000.2,0015.78,0012.84,0012.55
2024-02-05 00:01:00,SystemResetWarning,0830.0,4.99,000.00,022.7,022.1,000.0,031.1,024.6,19.1,0000.3,0015.32,0012.79,0012.50
2024-02-05 00:02:00,SystemResetWarning,0830.0,5.00,000.00,022.7,022.1,000.0,031.1,024.6,19.1,0000.1,0015.33,0012.78,0012.48
2024-02-05 00:03:00,SystemResetWarning,0829.9,5.01,000.00,022.7,022.1,000.0,031.1,024.5,19.2,0000.0,0015.32,0012.75,0012.45
2024-02-05 00:04:00,SystemResetWarning,0829.9,5.00,000.00,022.7,022.1,000.0,031.1,024.5,19.1,-000.0,0015.76,0012.76,0012.46
2024-02-05 00:05:00,SystemResetWarning,0829.9,5.00,000.00,022.7,022.0,000.0,031.1,024.5,19.1,0000.0,0015.84,0012.73,0012.44
2024-02-05 00:06:00,SystemResetWarning,0829.9,5.00,000.00,022.7,022.0,000.0,031.1,024.5,19.1,0000.1,0015.93,0012.79,0012.48
2024-02-05 00:07:00,SystemResetWarning,0829.9,5.00,000.00,022.7,022.0,000.0,031.1,024.5,19.0,-000.0,0015.96,0012.84,0012.55
2024-02-05 00:08:00,SystemResetWarning,0830.0,4.99,000.00,022.6,022.0,000.0,031.1,024.4,19.1,-000.4,0016.06,0012.94,0012.65
2024-02-05 00:09:00,SystemResetWarning,0830.0,5.00,000.00,022.6,021.9,000.0,031.1,024.4,19.1,-000.5,0016.21,0013.07,0012.77
2024-02-05 00:10:00,SystemResetWarning,0830.1,5.00,000.00,022.6,021.9,000.0,031.1,024.4,19.1,-000.4,0016.37,0013.22,0012.91
2024-02-05 00:11:00,SystemResetWarning,0830.0,5.01,000.00,022.6,021.9,000.0,031.1,024.4,19.1,-000.3,0016.53,0013.33,0013.02
2024-02-05 00:12:00,SystemResetWarning,0830.0,5.01,000.00,022.6,021.9,000.0,031.1,024.4,19.1,0000.0,0016.96,0013.44,0013.13
2024-02-05 00:13:00,SystemResetWarning,0830.0,5.00,000.00,022.6,021.8,000.0,031.1,024.4,19.1,0000.4,0017.62,0013.51,0013.22
2024-02-05 00:14:00,SystemResetWarning,0830.1,5.00,000.00,022.6,021.8,000.0,031.0,024.4,19.2,0000.5,0017.82,0013.62,0013.31
2024-02-05 00:15:00,SystemResetWarning,0830.0,5.00,000.00,022.6,021.8,000.0,031.0,024.3,19.2,0000.7,0017.61,0013.66,0013.34
2024-02-05 00:16:00,SystemResetWarning,0830.1,5.00,000.00,022.5,021.8,000.0,031.0,024.3,19.2,0000.8,0017.65,0013.77,0013.43
2024-02-05 00:17:00,SystemResetWarning,0830.1,5.00,000.00,022.5,021.8,000.0,031.0,024.3,19.3,0000.9,0017.72,0013.84,0013.52
2024-02-05 00:18:00,SystemResetWarning,0830.2,5.00,000.00,022.5,021.8,000.0,031.0,024.3,19.3,0000.8,0017.84,0013.90,0013.57
2024-02-05 00:19:00,SystemResetWarning,0830.2,5.00,000.00,022.5,021.7,000.0,031.0,024.3,19.2,0000.8,0017.94,0013.95,0013.59
2024-02-05 00:20:00,SystemResetWarning,0830.2,4.99,000.00,022.5,021.7,000.0,031.0,024.3,19.2,0000.9,0018.07,0014.02,0013.66
2024-02-05 00:21:00,SystemResetWarning,0830.3,5.00,000.00,022.5,021.7,000.0,031.0,024.3,19.2,0000.9,0018.29,0014.12,0013.74
2024-02-05 00:22:00,SystemResetWarning,0830.3,5.00,000.00,022.5,021.7,000.0,031.0,024.3,19.2,0001.0,0018.33,0014.20,0013.81
2024-02-05 00:23:00,SystemResetWarning,0830.2,5.00,000.00,022.4,021.7,000.0,030.9,024.2,19.1,0000.9,0018.13,0014.26,0013.86
2024-02-05 00:24:00,SystemResetWarning,0830.2,4.99,000.00,022.4,021.7,000.0,030.9,024.2,19.1,0000.7,0017.67,0014.34,0013.92
2024-02-05 00:25:00,SystemResetWarning,0830.2,5.00,000.00,022.4,021.7,000.0,030.9,024.2,19.0,0000.8,0017.72,0014.41,0013.97
2024-02-05 00:26:00,SystemResetWarning,0830.3,5.00,000.00,022.4,021.7,000.0,030.9,024.2,18.4,0000.7,0017.72,0014.51,0014.06
2024-02-05 00:27:00,SystemResetWarning,0830.3,5.00,000.00,022.4,021.7,000.0,030.9,024.2,18.0,0000.6,0018.60,0014.56,0014.09
2024-02-05 00:28:00,SystemResetWarning,0830.3,5.00,000.00,022.4,021.7,000.0,030.9,024.2,18.2,0000.4,0019.33,0014.58,0014.08
2024-02-05 00:29:00,SystemResetWarning,0830.3,5.00,000.00,022.4,021.7,000.0,030.9,024.2,18.4,0000.6,0019.03,0014.38,0013.91
2024-02-05 00:30:00,SystemResetWarning,0830.2,4.99,000.00,022.4,021.7,000.0,030.9,024.2,18.5,0000.7,0018.64,0014.10,0013.64
2024-02-05 00:31:00,SystemResetWarning,0830.2,5.00,000.00,022.4,021.7,000.0,030.9,024.2,18.5,0000.4,0018.39,0013.91,0013.46
2024-02-05 00:32:00,SystemResetWarning,0830.3,5.00,000.00,022.4,021.7,000.0,030.9,024.2,18.5,0000.2,0018.22,0013.82,0013.40
2024-02-05 00:33:00,SystemResetWarning,0830.3,5.01,000.00,022.3,021.7,000.0,030.8,024.1,18.4,-000.1,0018.25,0013.84,0013.42
2024-02-05 00:34:00,SystemResetWarning,0830.3,5.00,000.00,022.3,021.6,000.0,030.8,024.1,18.6,0000.1,0018.76,0013.88,0013.45
2024-02-05 00:35:00,SystemResetWarning,0830.3,5.01,000.00,022.3,021.6,000.0,030.8,024.1,18.7,0000.1,0019.26,0013.92,0013.50
2024-02-05 00:36:00,SystemResetWarning,0830.3,5.00,000.00,022.3,021.6,000.0,030.8,024.1,18.7,-000.0,0019.19,0013.89,0013.52
2024-02-05 00:37:00,SystemResetWarning,0830.4,4.99,000.00,022.3,021.6,000.0,030.8,024.1,18.7,0000.0,0019.12,0013.87,0013.51
2024-02-05 00:38:00,SystemResetWarning,0830.5,4.99,000.00,022.3,021.5,000.0,030.8,024.1,18.6,0000.1,0018.35,0013.89,0013.54
2024-02-05 00:39:00,SystemResetWarning,0830.5,4.99,000.00,022.3,021.5,000.0,030.8,024.1,18.6,0000.4,0017.80,0013.92,0013.60
2024-02-05 00:40:00,SystemResetWarning,0830.4,5.00,000.00,022.3,021.5,000.0,030.8,024.1,18.5,0000.6,0017.96,0014.11,0013.75
2024-02-05 00:41:00,SystemResetWarning,0830.4,5.00,000.00,022.2,021.5,000.0,030.8,024.0,18.4,0000.6,0018.36,0014.42,0014.04
2024-02-05 00:42:00,SystemResetWarning,0830.4,5.00,000.00,022.2,021.4,000.0,030.8,024.0,18.2,0000.6,0018.47,0014.54,0014.16
2024-02-05 00:43:00,SystemResetWarning,0830.4,4.99,000.00,022.2,021.5,000.0,030.8,024.0,18.2,0000.6,0018.42,0014.54,0014.18
2024-02-05 00:44:00,SystemResetWarning,0830.5,5.01,000.00,022.2,021.4,000.0,030.7,024.0,18.2,0000.7,0018.33,0014.46,0014.10
2024-02-05 00:45:00,SystemResetWarning,0830.4,5.01,000.00,022.2,021.4,000.0,030.7,024.0,18.3,0000.5,0017.96,0014.30,0013.95
2024-02-05 00:46:00,SystemResetWarning,0830.5,5.00,000.00,022.2,021.4,000.0,030.7,024.0,18.4,0000.4,0016.96,0014.12,0013.79
2024-02-05 00:47:00,SystemResetWarning,0830.7,5.00,000.00,022.2,021.4,000.0,030.7,023.9,18.4,0000.2,0016.98,0014.03,0013.69
2024-02-05 00:48:00,SystemResetWarning,0830.4,5.00,000.00,022.1,021.4,000.0,030.7,023.9,18.0,0000.1,0017.23,0014.00,0013.66
2024-02-05 00:49:00,SystemResetWarning,0830.5,4.99,000.00,022.1,021.4,000.0,030.7,023.9,17.9,0000.1,0017.18,0013.96,0013.63
2024-02-05 00:50:00,SystemResetWarning,0830.5,5.00,000.00,022.1,021.4,000.0,030.6,023.9,17.8,0000.1,0017.06,0013.87,0013.55
2024-02-05 00:51:00,SystemResetWarning,0830.7,5.00,000.00,022.1,021.4,000.0,030.6,023.9,17.7,0000.1,0016.74,0013.63,0013.35
2024-02-05 00:52:00,SystemResetWarning,0830.6,5.00,000.00,022.1,021.4,000.0,030.6,023.9,17.5,0000.0,0016.35,0013.31,0013.05
2024-02-05 00:53:00,SystemResetWarning,0830.6,5.00,000.00,022.1,021.4,000.0,030.6,023.9,17.5,0000.1,0016.86,0013.04,0012.79
2024-02-05 00:54:00,SystemResetWarning,0830.6,5.01,000.00,022.1,021.4,000.0,030.6,023.9,17.3,0000.1,0016.64,0012.80,0012.56
2024-02-05 00:55:00,SystemResetWarning,0830.7,5.00,000.00,022.1,021.4,000.0,030.6,023.9,17.2,0000.3,0016.25,0012.49,0012.27
2024-02-05 00:56:00,SystemResetWarning,0830.6,5.00,000.00,022.1,021.3,000.0,030.6,023.9,17.1,0000.4,0015.81,0012.11,0011.92
2024-02-05 00:57:00,SystemResetWarning,0830.6,5.00,000.00,022.1,021.3,000.0,030.6,023.9,17.0,0000.3,0015.39,0011.71,0011.53
2024-02-05 00:58:00,SystemResetWarning,0830.6,5.00,000.00,022.1,021.3,000.0,030.6,023.9,17.0,0000.6,0014.68,0011.23,0011.06
2024-02-05 00:59:00,SystemResetWarning,0830.6,5.00,000.00,022.0,021.3,000.0,030.6,023.9,16.8,0000.8,0013.69,0010.66,0010.53
